Tracking 26922 objects as of 1-Feb-2023
HD Live streaming from Space Station
objects crossing your sky now

CZ-6A DEB

Track CZ-6A DEB now!
10-day predictions


NORAD ID: 54310
Int'l Code: 2022-151BD
Perigee: 667.4 km
Apogee: 847.5 km
Inclination: 98.6 °
Period: 99.8 minutes
Semi major axis: 7128 km
RCS: Unknown
Launch date: November 11, 2022
Source: People's Republic of China (PRC)
Launch site: Taiyaun Space Center, China (TSC)

Note: This is SATELLITE DEBRIS
Your satellite tracking list
Your tracking list is empty




NASA's NSSDC Master Catalog

Two Line Element Set (TLE):
1 54310U 22151BD  23030.97744810  .00012451  00000-0  34218-2 0  9995
2 54310  98.6113  40.9390 0126351  53.0836 308.1851 14.42478714 10965
Source of the keplerian elements: AFSPC